Location: Newark
(51.3318°N, 0.0053°E)
Time: 11:25:49
(UTC+00:00)

RS-44 - Pass Details

Date: 28 June 2022
Orbit: 1175 x 1510 km, 82.5° (Epoch: 11 August)

Event Time Altitude Azimuth Distance (km) Brightness Sun altitude
Rises 22:08:46 0° 221° (SW) 4,346 ? -11.3°
Reaches altitude 10° 22:11:43 10° 229° (SW) 3,424 ? -11.5°
Maximum altitude 22:19:18 39° 296° (WNW) 2,030 ? -12.0°
Drops below altitude 10° 22:27:23 10° 3° (N) 3,640 ? -12.5°
Sets 22:30:40 0° 12° (NNE) 4,646 ? -12.7°
